Pawtucket, RI

7:21 AM EST on November 21, 2017 (GMT -0500)
North Central State

Weather History for KSFZ - March, 2014

Change the Weather History Date:

Saturday, March 22, 2014

  Actual Average Record
Temperature  
Mean Temperature 38 °F -  
Max Temperature 55 °F 45 °F 80 °F (2012)
Min Temperature 21 °F 28 °F 15 °F (2002)
Degree Days  
Heating Degree Days 27    
Moisture  
Dew Point 23 °F    
Average Humidity 54    
Maximum Humidity 80    
Minimum Humidity 33    
Precipitation  
Precipitation 0.00 in - - ()
Sea Level Pressure  
Sea Level Pressure 29.89 in    
Wind  
Wind Speed 7 mph (WSW)    
Max Wind Speed 25 mph    
Max Gust Speed 37 mph    
Visibility 10 miles    
Events      
Averages and records for this station are not official NWS values.
T = Trace of Precipitation, MM = Missing Value Source: NWS Daily Summary

Daily Weather History Graph

Daily Weather History Graph

Search for Another Location

Airport or City:

Trip Planner

Search our weather history database for the weather conditions in past years. The results will help you decide how hot, cold, wet, or windy it might be!

Date:

Astronomy

Mar. 22, 2014 Rise Set
Actual Time 6:45 AM EDT 7:00 PM EDT
Civil Twilight 6:18 AM EDT 7:28 PM EDT
Nautical Twilight 5:45 AM EDT 8:00 PM EDT
Astronomical Twilight 5:12 AM EDT 8:34 PM EDT
Moon 12:21 AM EDT (3/22) 10:21 AM EDT (3/22)
Length of Visible Light 13h 10m
Length of Day
12h 14m
Waning Gibbous, 65% of the Moon is Illuminated
Mar 22
Waning Gibbous
Mar 23
Last Quarter
Mar 30
New
Apr 7
First Quarter
Apr 15
Full

Hourly Weather History & Observations

Time (EDT) Temp. Windchill Dew Point Humidity Pressure Visibility Wind Dir Wind Speed Gust Speed Precip Events Conditions
12:15 AM 28.4 °F 22.2 °F 15.8 °F 59% 30.05 in 10.0 mi West 5.8 mph - N/A   Clear
12:35 AM 28.4 °F 23.3 °F 15.8 °F 59% 30.05 in 10.0 mi West 4.6 mph - N/A   Clear
12:55 AM 26.6 °F 21.2 °F 15.8 °F 64% 30.05 in 10.0 mi West 4.6 mph - N/A   Clear
1:15 AM 28.4 °F 23.3 °F 15.8 °F 59% 30.06 in 10.0 mi West 4.6 mph - N/A   Clear
1:35 AM 28.4 °F 23.3 °F 15.8 °F 59% 30.06 in 10.0 mi West 4.6 mph - N/A   Clear
1:55 AM 26.6 °F 20.0 °F 15.8 °F 64% 30.06 in 10.0 mi West 5.8 mph - N/A   Clear
2:15 AM 26.6 °F 21.2 °F 15.8 °F 64% 30.07 in 10.0 mi West 4.6 mph - N/A   Clear
2:35 AM 26.6 °F 21.2 °F 15.8 °F 64% 30.06 in 10.0 mi West 4.6 mph - N/A   Clear
2:55 AM 24.8 °F - 15.8 °F 69% 30.04 in 10.0 mi Calm Calm - N/A   Clear
3:15 AM 26.6 °F - 15.8 °F 64% 30.03 in 10.0 mi Calm Calm - N/A   Clear
3:35 AM 24.8 °F - 15.8 °F 69% 30.03 in 10.0 mi Calm Calm - N/A   Clear
3:55 AM 24.8 °F - 14.0 °F 64% 30.03 in 10.0 mi Calm Calm - N/A   Clear
4:15 AM 24.8 °F - 15.8 °F 69% 30.02 in 10.0 mi Calm Calm - N/A   Clear
4:35 AM 23.0 °F - 15.8 °F 74% 30.02 in 10.0 mi Calm Calm - N/A   Clear
4:55 AM 23.0 °F - 15.8 °F 74% 30.01 in 10.0 mi Calm Calm - N/A   Clear
5:15 AM 23.0 °F - 17.6 °F 80% 30.01 in 10.0 mi Calm Calm - N/A   Clear
5:35 AM 21.2 °F - 15.8 °F 80% 30.00 in 10.0 mi Calm Calm - N/A   Clear
5:55 AM 21.2 °F - 15.8 °F 80% 30.00 in 10.0 mi Calm Calm - N/A   Partly Cloudy
6:15 AM 24.8 °F - 17.6 °F 74% 30.00 in 10.0 mi Calm Calm - N/A   Partly Cloudy
6:35 AM 26.6 °F - 17.6 °F 69% 29.99 in 10.0 mi Calm Calm - N/A   Partly Cloudy
6:55 AM 26.6 °F 22.6 °F 17.6 °F 69% 29.98 in 10.0 mi South 3.5 mph - N/A   Clear
7:15 AM 28.4 °F 24.6 °F 17.6 °F 64% 29.98 in 10.0 mi South 3.5 mph - N/A   Clear
7:35 AM 28.4 °F - 19.4 °F 69% 29.98 in 10.0 mi Calm Calm - N/A   Partly Cloudy
7:55 AM 28.4 °F 23.3 °F 19.4 °F 69% 29.96 in 10.0 mi South 4.6 mph - N/A   Clear
8:15 AM 30.2 °F 25.4 °F 19.4 °F 64% 29.96 in 10.0 mi South 4.6 mph - N/A   Mostly Cloudy
8:35 AM 30.2 °F 25.4 °F 19.4 °F 64% 29.95 in 10.0 mi South 4.6 mph - N/A   Mostly Cloudy
8:55 AM 32.0 °F 26.4 °F 21.2 °F 64% 29.94 in 10.0 mi South 5.8 mph - N/A   Partly Cloudy
9:15 AM 33.8 °F 28.6 °F 23.0 °F 65% 29.91 in 10.0 mi SSE 5.8 mph - N/A   Scattered Clouds
9:35 AM 35.6 °F 28.0 °F 24.8 °F 65% 29.90 in 10.0 mi SSE 10.4 mph 17.3 mph N/A   Partly Cloudy
9:55 AM 37.4 °F 32.1 °F 24.8 °F 60% 29.88 in 10.0 mi South 6.9 mph - N/A   Clear
10:15 AM 39.2 °F 33.0 °F 24.8 °F 56% 29.87 in 10.0 mi SSE 9.2 mph 19.6 mph N/A   Clear
10:35 AM 39.2 °F 34.2 °F 24.8 °F 56% 29.85 in 10.0 mi South 6.9 mph - N/A   Clear
10:55 AM 42.8 °F 37.5 °F 26.6 °F 53% 29.83 in 10.0 mi SSE 9.2 mph 16.1 mph N/A   Clear
11:15 AM 42.8 °F 37.0 °F 26.6 °F 53% 29.80 in 10.0 mi South 10.4 mph 21.9 mph N/A   Clear
11:35 AM 46.4 °F 41.9 °F 28.4 °F 50% 29.79 in 10.0 mi South 9.2 mph 20.7 mph N/A   Clear
11:55 AM 46.4 °F 41.5 °F 30.2 °F 53% 29.77 in 10.0 mi SSE 10.4 mph 18.4 mph N/A   Clear
12:15 PM 48.2 °F - 32.0 °F 54% 29.74 in 10.0 mi SSE 8.1 mph 21.9 mph N/A   Clear
12:35 PM 50.0 °F - 33.8 °F 54% 29.72 in 10.0 mi South 9.2 mph 19.6 mph N/A   Partly Cloudy
12:55 PM 53.6 °F - 35.6 °F 51% 29.72 in 10.0 mi SSW 12.7 mph 28.8 mph N/A   Mostly Cloudy
1:15 PM 55.4 °F - 37.4 °F 51% 29.71 in 10.0 mi SSW 18.4 mph 28.8 mph N/A   Mostly Cloudy
1:35 PM 55.4 °F - 35.6 °F 47% 29.70 in 10.0 mi WSW 10.4 mph 25.3 mph N/A   Mostly Cloudy
1:55 PM 53.6 °F - 37.4 °F 54% 29.70 in 10.0 mi West 12.7 mph 20.7 mph N/A   Overcast
2:15 PM 51.8 °F - 37.4 °F 58% 29.69 in 10.0 mi WSW 10.4 mph 18.4 mph N/A   Overcast
2:35 PM 53.6 °F - 37.4 °F 54% 29.68 in 10.0 mi WSW 12.7 mph 23.0 mph N/A   Partly Cloudy
2:55 PM 55.4 °F - 35.6 °F 47% 29.69 in 10.0 mi West 21.9 mph 29.9 mph N/A   Scattered Clouds
3:15 PM 55.4 °F - 32.0 °F 41% 29.69 in 10.0 mi West 16.1 mph 36.8 mph N/A   Scattered Clouds
3:35 PM 55.4 °F - 30.2 °F 38% 29.70 in 10.0 mi West 23.0 mph 33.4 mph N/A   Clear
3:55 PM 55.4 °F - 30.2 °F 38% 29.70 in 10.0 mi West 16.1 mph 28.8 mph N/A   Clear
4:15 PM 55.4 °F - 28.4 °F 36% 29.71 in 10.0 mi West 19.6 mph 35.7 mph N/A   Clear
4:35 PM 55.4 °F - 26.6 °F 33% 29.72 in 10.0 mi West 25.3 mph 36.8 mph N/A   Clear
4:55 PM 55.4 °F - 28.4 °F 36% 29.73 in 10.0 mi West 19.6 mph 25.3 mph N/A   Partly Cloudy
5:15 PM 55.4 °F - 28.4 °F 36% 29.74 in 10.0 mi West 15.0 mph 26.5 mph N/A   Scattered Clouds
5:35 PM 55.4 °F - 26.6 °F 33% 29.75 in 10.0 mi West 16.1 mph 28.8 mph N/A   Partly Cloudy
5:55 PM 55.4 °F - 26.6 °F 33% 29.77 in 10.0 mi West 13.8 mph 29.9 mph N/A   Clear
6:15 PM 53.6 °F - 26.6 °F 35% 29.78 in 10.0 mi West 13.8 mph 25.3 mph N/A   Clear
6:35 PM 51.8 °F - 26.6 °F 38% 29.81 in 10.0 mi WNW 13.8 mph 19.6 mph N/A   Clear
6:55 PM 48.2 °F - 24.8 °F 40% 29.82 in 10.0 mi WNW 16.1 mph 24.2 mph N/A   Clear
7:15 PM 46.4 °F 39.5 °F 21.2 °F 37% 29.84 in 10.0 mi WNW 17.3 mph 32.2 mph N/A   Clear
7:35 PM 46.4 °F 40.1 °F 19.4 °F 34% 29.86 in 10.0 mi WNW 15.0 mph 21.9 mph N/A   Clear
7:55 PM 44.6 °F 37.8 °F 19.4 °F 37% 29.88 in 10.0 mi WNW 15.0 mph 21.9 mph N/A   Clear
8:15 PM 44.6 °F 38.4 °F 19.4 °F 37% 29.90 in 10.0 mi NW 12.7 mph 26.5 mph N/A   Clear
8:35 PM 42.8 °F 35.4 °F 19.4 °F 39% 29.91 in 10.0 mi WNW 15.0 mph - N/A   Clear
8:55 PM 42.8 °F 35.4 °F 19.4 °F 39% 29.93 in 10.0 mi WNW 15.0 mph 20.7 mph N/A   Clear
9:15 PM 41.0 °F 34.3 °F 19.4 °F 42% 29.93 in 10.0 mi WNW 11.5 mph 19.6 mph N/A   Clear
9:35 PM 39.2 °F 32.0 °F 19.4 °F 45% 29.94 in 10.0 mi WNW 11.5 mph 16.1 mph N/A   Clear
9:55 PM 39.2 °F 32.5 °F 19.4 °F 45% 29.95 in 10.0 mi NW 10.4 mph 20.7 mph N/A   Clear
10:15 PM 37.4 °F 30.3 °F 19.4 °F 48% 29.96 in 10.0 mi WNW 10.4 mph 16.1 mph N/A   Clear
10:35 PM 35.6 °F 27.5 °F 19.4 °F 52% 29.96 in 10.0 mi WNW 11.5 mph 18.4 mph N/A   Clear
10:55 PM 35.6 °F 27.1 °F 19.4 °F 52% 29.95 in 10.0 mi NW 12.7 mph - N/A   Clear
11:15 PM 35.6 °F 30.7 °F 19.4 °F 52% 29.96 in 10.0 mi NW 5.8 mph - N/A   Clear
11:35 PM 33.8 °F 27.0 °F 19.4 °F 56% 29.96 in 10.0 mi WNW 8.1 mph - N/A   Clear
11:55 PM 33.8 °F 27.7 °F 19.4 °F 56% 29.96 in 10.0 mi NW 6.9 mph - N/A   Clear